Regional Weather Roundup
Issued by NWS

Home | Current Version | Previous Version | Text Only | Print | Product List | Glossary Off
Versions: 1 2 3 4 5 6 7 8 9 10 11 12 13 14 15 16 17 18 19 20 21 22 23 24 25 26 27 28 29 30 31 32 33 34 35 36 37 38 39 40 41 42 43 44 45 46 47 48 49 50

000
ASUS43 KFSD 260110
RWRSD

WEATHER ROUNDUP FOR SOUTH DAKOTA
NATIONAL WEATHER SERVICE SIOUX FALLS SD
700 PM CST THU DEC 25 2014

NOTE: "FAIR" INDICATES FEW OR NO CLOUDS BELOW 12,000 FEET WITH NO
SIGNIFICANT WEATHER AND/OR OBSTRUCTIONS TO VISIBILITY.


SDZ001>005-009-010-012>017-260200-
NORTHWEST AND NORTH CENTRAL SOUTH DAKOTA

CITY           SKY/WX    TMP DP  RH WIND       PRES   REMARKS
BUFFALO          N/A     22  18  85 N12       29.87R WCI  10
FAITH            N/A     24  18  77 N20       29.91R WCI  10
MOBRIDGE       CLOUDY    27  22  81 N9        29.89R WCI  18
$$

SDZ012>016-024>037-041>051-057-063-072>074-260200-
SOUTHWEST AND SOUTH CENTRAL SOUTH DAKOTA

CITY           SKY/WX    TMP DP  RH WIND       PRES   REMARKS
RAPID CTY ARPT FLURRIES  24  20  84 N17       29.89R WCI  11
PIERRE         CLOUDY    28  25  88 N22       29.90R WCI  14
CUSTER         CLOUDY    19  12  74 N9        29.74R WCI   8
ELLSWORTH AFB  FLURRIES  25  21  86 N18       29.89  WCI  11
PHILIP         CLOUDY    29  22  75 N16       29.91R WCI  17
PINE RIDGE     LGT SNOW  25  20  81 N12       29.85R WCI  14
SPEARFISH      CLOUDY    19  19 100 NW13G18   29.91R WCI   7
WINNER         LGT SNOW  27  25  92 N16       29.87R FOG     WCI  15
$$

SDZ004>011-016>023-039-040-260200-
NORTHEAST SOUTH DAKOTA

CITY           SKY/WX    TMP DP  RH WIND       PRES   REMARKS
ABERDEEN       CLOUDY    28  22  78 N13       29.90R WCI  17
WATERTOWN      LGT SNOW  25  23  92 N15       29.82R FOG     WCI  13
SISSETON         N/A     27  25  92 N8        29.87R WCI  19
$$

SDZ017-020-022-023-036>040-048>070-260200-
SOUTHEAST SOUTH DAKOTA

CITY           SKY/WX    TMP DP  RH WIND       PRES   REMARKS
SIOUX FALLS    FRZ DRZL  32  30  92 NE12      29.78R FOG     WCI  23
HURON          LGT SNOW  26  23  88 N16       29.87R FOG     WCI  14
CHAMBERLAIN    LGT SNOW  27  25  93 N15       29.88R WCI  15
MITCHELL       LGT SNOW  28  25  88 N18       29.85R FOG     WCI  15
YANKTON        CLOUDY    34  28  80 N16       29.77R WCI  23
$$

ABBREVIATIONS USED IN REMARKS
   TC - TEMPERATURE IN CELSIUS
  WCI - WIND CHILL INDEX
   HX - HEAT INDEX
  VSB - VISIBILITY




USA.gov is the U.S. government's official web portal to all federal, state and local government web resources and services.